Home   Weather   Bangui   Past weeks

Flag for Central African Republic Past Weather in Bangui, Central African Republic — Yesterday and Last 2 Weeks

77 °F

Passing clouds.

Feels Like: 78 °F
Forecast: 71 / 85 °F
Wind: No wind

Location: Bangui Airport

Current Time: Oct 28, 2016 at 9:32:12 AM

Latest Report: Oct 28, 2016 at 8:00 AM

Visibility: 5 mi

Pressure: 29.92 "Hg

Humidity: 94%

Dew Point: 75 °F

Location of BanguiLocation

Past Weather in Bangui — Graph


Bangui Temperature Yesterday

Maximum temperature yesterday: 88 °F (at 4:00 PM)
Minimum temperature yesterday: 72 °F (at 12:00 AM)
Average temperature yesterday: 78 °F

High & Low Weather Summary for the Past Weeks

High97 °F (Oct 25, 2:00 PM)100% (Oct 13, 6:00 PM)29.95 "Hg (Oct 13, 6:00 PM)
Low68 °F (Oct 17, 4:00 AM)47% (Oct 25, 2:00 PM)29.62 "Hg (Oct 25, 4:00 PM)
Average78 °F84%29.84 "Hg
* Reported Oct 13 11:00 AM — Oct 28 8:00 AM, Bangui, Weather by CustomWeather, © 2016

Note: Actual official high and low records may vary slightly from our data, if they occured in-between our weather recording intervals... More about our weather records


Bangui Weather History for the Previous 24 Hours

Scroll right to see more
Time TempWeatherWind HumidityBarometerVisibility
8:00 AM
Fri, Oct 28
77 °FPassing clouds.No wind94%29.92 "Hg5 mi
7:00 AM75 °FPassing clouds.No wind100%29.89 "Hg4 mi
6:00 AM73 °FLight rain. Passing clouds.No wind100%29.86 "Hg4 mi
5:00 AM73 °FPassing clouds.No wind100%29.86 "Hg5 mi
4:00 AM75 °FPassing clouds.No wind94%29.83 "Hg5 mi
3:00 AM75 °FClear.No wind100%29.83 "Hg4 mi
2:00 AM75 °FClear.2 mph94%29.83 "Hg4 mi
1:00 AM75 °FClear.5 mph94%29.86 "Hg4 mi
12:00 AM75 °FClear.No wind94%29.86 "Hg4 mi
11:00 PM
Thu, Oct 27
75 °FClear.7 mph94%29.86 "Hg4 mi
10:00 PM75 °FPassing clouds.No wind100%29.86 "Hg5 mi
9:00 PM77 °FPassing clouds.No wind94%29.86 "Hg5 mi
8:00 PM79 °FThunderstorms. Passing clouds.1 mph89%29.83 "Hg5 mi
7:00 PM81 °FThunderstorms. Passing clouds.5 mph89%29.80 "Hg5 mi
6:00 PM82 °FPassing clouds.No wind84%29.77 "Hg5 mi
5:00 PM86 °FPassing clouds.3 mph70%29.74 "HgN/A
4:00 PM88 °FPassing clouds.No wind59%29.74 "HgN/A
3:00 PM86 °FPassing clouds.2 mph70%29.74 "HgN/A
2:00 PM86 °FPassing clouds.3 mph70%29.77 "HgN/A
1:00 PM86 °FPassing clouds.8 mph70%29.80 "HgN/A
12:00 PM86 °FPassing clouds.6 mph66%29.80 "HgN/A
11:00 AM86 °FPassing clouds.7 mph66%29.83 "HgN/A
10:00 AM81 °FPassing clouds.7 mph84%29.86 "Hg5 mi
9:00 AM75 °FPassing clouds.2 mph89%29.83 "Hg5 mi
Weather by CustomWeather, © 2016

See weather overviewHow to use our weather pages